sat.trackr.live / text

‹ back to catalog

STARLINK-4585

NORAD 53567 · 2022-101AS

PAYLOAD ACTIVE UNKNOWN

§ Identity

Operator
Country
US
Launch date
2022-08-19
Launch site
AFETR
Launch vehicle
Mass (kg)
RCS (m²)

Purposes: comms

External: N2YO · Heavens-Above · Gunter

§ Orbital elements

Epoch: 2026-05-25T04:43:12.999936Z

Period
95.44 min
Inclination
53.2131°
Eccentricity
0.0001351
Mean motion
15.08841048 rev/d
Perigee alt
538.8 km
Apogee alt
540.7 km
Semi-major
6,917.9 km
B*
6.3021e-5
RAAN
70.7706°
Arg perigee
67.8720°
Mean anomaly
292.2415°
Rev number
20,799

§ Raw data

STARLINK-45851 53567U 22101AS  26145.19667824  .00000715  00000+0  63021-4 0  99912 53567  53.2131  70.7706 0001351  67.8720 292.2415 15.08841048207991

JSON: /api/v1/satellites/53567 · /tle

For live sub-satellite position, see the globe view (requires WebGL).

§ Visibility from observer

Set your observer location to see the next 7 days of passes ≥ 10°. The values pass through the URL so the page stays shareable.

No JS? Fill the form by hand. The geolocation button needs JavaScript.